{"data":{"norad_id":60506,"intl_designator":"2024-149AQ","name":"LUR-1","alt_names":[],"object_type":"PAYLOAD","status":"ACTIVE","operator":null,"country":"SPN","launch_date":"2024-08-16","launch_site_code":"AFWTR","launch_vehicle":null,"mission":null,"orbit_class":"UNKNOWN","rcs_meters":null,"size_class":null,"mass_kg":null,"dimensions":null,"purposes":[],"wikipedia_slug":null,"has_3d_model":false,"image_url":null,"decayed_at":null,"tle_current":{"epoch":"2026-05-25T05:18:54.722016Z","epoch_age_seconds":49244,"freshness":"FRESH","line1":"1 60506U 24149AQ  26145.22146669  .00006809  00000+0  23878-3 0  9994","line2":"2 60506  97.3738 224.2216 0004893  45.9365 314.2278 15.29756843 98465","mean_motion":15.29756843,"eccentricity":0.0004893,"inclination_deg":97.3738,"raan_deg":224.2216,"arg_perigee_deg":45.9365,"mean_anomaly_deg":314.2278,"bstar":0.00023878,"rev_number":9846,"period_min":94.132607191089,"perigee_km":473.18458300185,"apogee_km":479.89256852028,"semimajor_km":6854.6755757611,"source":"CELESTRAK","updated_at":"2026-05-25T13:38:02.119581Z"}}}